CAPE
0 0 0 0 0 0 1 2 1 0 1 1 2 3 1 0 0 0 0 0 0 0 0 0 0 0 0 0 0 1 0 0 0 0 0 0 0 0 171 495 352 682 461 155 382
1 0 0 0 0 0 1 1 3 0 0 2 3 2 0 0 0 0 0 0 0 0 0 0 0 0 0 0 0 0 0 0 0 0 0 0 0 16 347 277 732 605 370 525 833
0 0 0 0 0 0 0 1 2 1 1 2 3 1 0 0 0 0 0 0 0 1 0 0 0 0 0 0 0 0 0 0 0 0 0 0 0 33 264 217 485 654 618 693 972
0 0 0 0 0 0 0 0 0 2 2 3 3 0 0 0 0 0 0 0 4 0 0 0 0 0 0 0 0 0 0 0 0 0 0 0 16 107 197 172 330 710 720 847 1044
0 0 0 0 0 0 0 0 0 0 1 1 0 0 0 0 0 0 1 29 0 0 0 0 0 0 0 0 0 0 0 0 0 0 0 0 171 208 131 550 854 879 851 1018 1048
0 0 0 0 0 0 0 1 0 0 0 0 0 0 0 0 0 0 0 0 0 0 0 0 0 0 0 0 0 0 0 0 0 0 0 0 0 74 403 874 970 937 921 1023 1063
1 1 0 0 0 0 0 0 0 0 0 0 0 0 0 0 0 0 0 0 0 0 0 0 0 0 0 0 0 0 0 0 0 0 0 0 0 42 434 902 1047 1051 1066 1083 1059
0 2 1 0 0 0 0 0 0 0 0 0 0 0 0 0 0 0 0 0 0 0 0 0 0 0 0 0 0 0 0 0 0 0 0 0 0 427 437 812 978 1187 1282 1261 1122
3 3 1 1 2 1 0 0 0 0 0 0 0 0 0 0 0 0 0 0 0 0 0 0 0 0 0 0 0 0 0 0 0 0 0 0 0 242 323 608 791 906 1093 1277 1234
3 2 1 1 1 2 0 0 0 0 0 0 0 0 0 0 0 0 0 0 0 0 0 0 0 0 0 0 0 0 0 0 0 0 0 0 1 52 301 434 598 637 803 820 900
2 2 1 1 0 0 0 0 0 0 0 0 0 0 0 0 0 0 0 0 0 0 0 0 0 0 0 0 0 0 0 0 0 0 0 0 0 73 394 326 433 352 469 603 493
1 1 1 0 0 0 0 0 0 0 0 0 0 0 0 0 0 0 0 0 0 0 0 0 0 0 0 0 0 0 0 0 0 0 0 0 0 194 603 394 655 646 779 772 1106
1 1 1 0 0 0 0 0 0 0 0 0 0 0 0 0 0 0 0 0 0 0 0 0 0 0 0 0 0 0 0 0 0 0 0 0 0 461 372 492 774 731 784 901 1115
0 0 0 1 0 0 0 0 0 0 0 0 0 0 0 0 0 0 0 0 0 0 0 0 0 0 0 0 0 0 0 0 0 0 0 0 0 0 23 343 413 434 546 897 1021
0 0 0 0 0 0 0 0 0 0 0 0 0 0 0 0 0 0 0 0 0 0 0 0 0 0 0 0 0 0 0 0 0 0 0 0 0 0 0 135 226 216 325 565 788
0 0 2 0 0 0 0 0 0 0 0 0 0 0 0 0 0 0 0 0 0 0 0 0 0 0 0 0 0 0 0 0 0 0 0 0 0 0 0 218 144 46 268 485 485
0 0 1 0 0 0 0 0 0 0 0 0 0 0 0 0 0 0 0 0 0 0 0 0 0 0 0 0 0 0 0 0 0 0 0 0 0 0 0 0 99 121 195 334 201
0 0 0 0 0 0 0 0 0 0 0 0 0 0 0 0 0 0 0 0 0 0 0 0 0 0 0 0 0 0 0 0 0 0 0 0 0 0 0 0 3 64 93 55 0
0 0 0 0 0 0 0 0 0 0 0 0 0 0 0 0 0 0 0 0 0 0 0 0 0 0 0 0 0 0 0 0 0 0 0 0 0 0 0 0 0 1 0 6 1
0 0 0 0 0 0 0 0 0 0 0 0 0 0 0 0 0 0 0 0 0 0 0 0 0 0 0 0 0 0 0 0 0 0 0 0 0 0 0 0 0 46 0 0 0
0 0 0 0 0 0 0 0 0 0 0 0 0 0 0 0 0 0 0 0 0 0 0 0 0 0 0 0 0 0 0 0 0 0 0 0 0 0 0 0 0 0 0 0 0
0 0 0 0 0 0 0 0 0 0 0 0 0 0 0 0 0 0 0 0 0 0 0 0 0 0 0 0 0 0 0 0 0 0 0 0 0 0 0 0 0 0 0 0 0
0 0 0 0 0 0 0 0 0 0 0 0 0 0 0 0 0 0 0 0 0 0 0 0 0 0 0 0 0 0 0 0 0 0 0 0 0 0 0 0 0 0 0 0 0
0 0 0 0 0 0 0 0 0 0 0 0 0 0 0 0 0 0 0 0 0 0 0 0 0 0 0 0 0 0 0 0 0 0 0 0 0 0 0 0 0 0 0 0 0
0 0 0 0 0 0 0 0 0 0 0 0 0 0 0 0 0 0 0 0 0 0 0 0 0 0 0 0 0 0 0 0 0 0 0 0 0 0 0 0 0 0 0 0 0
0 0 0 0 0 0 0 0 0 0 0 0 0 0 0 0 0 0 0 0 0 0 0 0 0 0 0 0 0 0 0 0 0 0 0 0 0 0 0 0 0 0 0 0 11
0 0 0 0 0 0 0 0 0 0 0 0 0 0 0 0 0 0 0 0 0 0 0 0 0 0 0 0 0 0 0 0 0 0 0 0 0 0 0 0 0 0 0 0 6
CIN
0 0 0 0 0 0 0 0 0 0 0 0 0 0 0 0 0 0 0 0 0 0 0 0 0 0 0 0 0 -49 0 0 0 0 0 0 0 0 -302 -238 -235 -276 -402 -521 -426
0 0 0 0 0 0 0 0 0 0 0 0 0 0 0 0 0 0 0 0 0 0 0 0 0 0 0 0 0 0 0 0 0 0 0 0 0 -249 -228 -211 -285 -359 -459 -437 -317
0 0 0 0 0 0 0 0 0 0 0 0 0 0 0 0 0 0 0 0 0 -37 0 0 0 0 0 0 0 0 0 0 0 0 0 0 0 -264 -238 -180 -255 -372 -435 -402 -294
0 0 0 0 0 0 0 0 0 0 0 0 0 0 0 0 0 0 0 0 -110 0 0 0 0 0 0 0 0 0 0 0 0 0 0 0 -221 -271 -235 -170 -288 -380 -448 -406 -290
0 0 0 0 0 0 0 0 0 0 0 0 0 0 0 0 0 0 -64 -555 0 0 0 0 0 0 0 0 0 0 0 0 0 0 0 0 -161 -184 -233 -346 -386 -383 -375 -339 -297
0 0 0 0 0 0 0 0 0 0 0 0 0 0 0 0 0 0 0 0 0 0 0 0 0 0 0 0 0 0 0 0 0 0 0 0 0 -155 -306 -372 -374 -385 -348 -309 -289
0 0 0 0 0 0 0 0 0 0 0 0 0 0 0 0 0 0 0 0 0 0 0 0 0 0 0 0 0 0 0 0 0 0 0 0 0 -171 -343 -356 -351 -363 -307 -257 -248
0 0 0 0 0 0 0 0 0 0 0 0 0 0 0 0 0 0 0 0 0 0 0 0 0 0 0 0 0 0 0 0 0 0 0 0 0 -251 -365 -329 -349 -371 -311 -283 -293
0 0 0 0 0 0 0 0 0 0 0 0 0 0 0 0 0 0 0 0 0 0 0 0 0 0 0 0 0 0 0 0 0 0 0 0 0 -251 -367 -337 -300 -328 -348 -291 -277
0 0 0 0 0 0 0 0 0 0 0 0 0 0 0 0 0 0 0 0 0 0 0 0 0 0 0 0 0 0 0 0 0 0 0 0 -36 -315 -333 -345 -311 -325 -334 -343 -360
0 0 0 0 0 0 0 0 0 0 0 0 0 0 0 0 0 0 0 0 0 0 0 0 0 0 0 0 0 0 0 0 0 0 0 0 0 -306 -316 -345 -332 -357 -369 -352 -388
0 0 0 0 0 0 0 0 0 0 0 0 0 0 0 0 0 0 0 0 0 0 0 0 0 0 0 0 0 0 0 0 0 0 0 0 0 -349 -308 -307 -287 -320 -352 -340 -400
0 0 0 0 0 0 0 0 0 0 0 0 0 0 0 0 0 0 0 0 0 0 0 0 0 0 0 0 0 0 0 0 0 0 0 0 0 -276 -314 -313 -292 -328 -381 -383 -359
0 0 0 0 0 0 0 0 0 0 0 0 0 0 0 0 0 0 0 0 0 0 0 0 0 0 0 0 0 0 0 0 0 0 0 0 0 0 -328 -304 -350 -356 -386 -348 -363
0 0 0 0 0 0 0 0 0 0 0 0 0 0 0 0 0 0 0 0 0 0 0 0 0 0 0 0 0 0 0 0 0 0 0 0 0 0 0 -301 -369 -425 -416 -387 -369
0 0 0 0 0 0 0 0 0 0 0 0 0 0 0 0 0 0 0 0 0 0 0 0 0 0 0 0 0 0 0 0 0 0 0 0 0 0 0 -256 -401 -540 -437 -391 -425
0 0 0 0 0 0 0 0 0 0 0 0 0 0 0 0 0 0 0 0 0 0 0 0 0 0 0 0 0 0 0 0 0 0 0 0 0 0 0 0 -379 -458 -461 -404 -488
0 0 0 0 0 0 0 0 0 0 0 0 0 0 0 0 0 0 0 0 0 0 0 0 0 0 0 0 0 0 0 0 0 0 0 0 0 0 0 0 -414 -450 -440 -495 -74
0 0 0 0 0 0 0 0 0 0 0 0 0 0 0 0 0 0 0 0 0 0 0 0 0 0 0 0 0 0 0 0 0 0 0 0 0 0 0 0 0 -101 0 -488 -66
0 0 0 0 0 0 0 0 0 0 0 0 0 0 0 0 0 0 0 0 0 0 0 0 0 0 0 0 0 0 0 0 0 0 0 0 0 0 0 0 0 -453 -229 0 0
0 0 0 0 0 0 0 0 0 0 0 0 0 0 0 0 0 0 0 0 0 0 0 0 0 0 0 0 0 0 0 0 0 0 0 0 0 0 0 0 0 0 0 0 0
0 0 0 0 0 0 0 0 0 0 0 0 0 0 0 0 0 0 0 0 0 0 0 0 0 0 0 0 0 0 0 0 0 0 0 0 0 0 0 0 0 0 0 0 0
0 0 0 0 0 0 0 0 0 0 0 0 0 0 0 0 0 0 0 0 0 0 0 0 0 0 0 0 0 0 0 0 0 0 0 0 0 0 0 0 0 0 0 0 0
0 0 0 0 0 0 0 0 0 0 0 0 0 0 0 0 0 0 0 0 0 0 0 0 0 0 0 0 0 0 0 0 0 0 0 0 0 0 0 0 0 0 0 0 0
0 0 0 0 0 0 0 0 0 0 0 0 0 0 0 0 0 0 0 0 0 0 0 0 0 0 0 0 0 0 0 0 0 0 0 0 0 0 0 0 0 0 0 0 0
0 0 0 0 0 0 0 0 0 0 0 0 0 0 0 0 0 0 0 0 0 0 0 0 0 0 0 0 0 0 0 0 0 0 0 0 0 0 0 0 0 0 0 0 -573
0 0 0 0 0 0 0 0 0 0 0 0 0 0 0 0 0 0 0 0 0 0 0 0 0 0 0 0 0 0 0 0 0 0 0 0 0 0 0 0 0 0 0 0 -483
Wind_Speed
20 19 19 18 18 18 17 16 15 15 14 14 12 10 9 10 12 2 6 8 4 12 5 5 3 3 3 3 1 3 5 4 2 2 1 3 5 2 3 6 2 3 5 13 18
20 20 20 19 19 17 17 16 16 15 14 13 11 8 6 7 2 7 11 7 4 12 5 3 3 1 4 3 3 5 4 4 6 5 1 4 5 7 4 3 5 12 17 21 18
21 21 20 20 20 19 17 16 15 14 13 12 9 6 4 4 2 8 3 10 10 6 3 3 3 2 3 1 1 1 2 3 6 7 5 9 3 4 9 3 7 15 18 20 17
21 21 22 21 21 20 19 18 16 13 11 10 6 3 2 1 2 1 1 11 10 7 3 4 3 3 3 2 2 1 7 5 6 2 6 11 9 4 4 2 10 17 23 19 18
22 22 22 22 22 21 20 19 17 13 11 5 3 3 1 0 8 3 14 12 7 6 5 4 4 3 1 2 4 3 4 6 7 4 4 10 4 6 2 8 18 17 18 17 15
23 23 23 23 22 21 20 19 16 13 8 1 5 5 1 2 2 6 10 7 5 5 4 3 5 4 1 2 1 3 3 8 4 3 3 7 3 3 3 13 16 18 15 14 14
23 23 23 23 23 23 21 20 15 11 4 4 6 2 0 7 2 7 7 4 5 4 5 3 1 3 3 3 3 3 6 7 2 3 3 5 5 3 5 14 15 14 12 11 11
24 24 24 23 23 23 23 20 16 6 3 5 6 1 6 3 5 6 3 4 3 2 1 2 3 2 3 3 6 5 5 2 2 4 2 6 4 1 5 13 14 13 12 13 13
24 24 24 24 23 22 21 20 2 5 4 6 1 1 6 2 1 4 4 5 6 4 3 3 2 2 4 4 6 7 1 1 8 4 5 5 3 4 5 7 7 10 13 12 9
25 25 25 25 24 20 21 6 3 6 2 3 4 2 1 4 3 5 3 3 4 4 2 3 6 4 4 5 3 2 3 3 4 3 4 5 4 5 6 9 9 6 7 9 12
26 26 26 25 24 19 9 1 3 2 2 7 4 2 3 4 4 4 4 4 3 8 2 3 4 6 9 6 4 2 3 2 4 2 6 3 6 5 7 7 7 7 8 8 9
26 27 27 27 24 20 2 1 4 3 7 7 4 6 4 1 2 3 7 5 3 4 3 5 6 9 3 5 4 4 2 2 2 5 6 5 4 4 3 4 7 10 8 10 5
26 26 27 29 29 1 2 4 3 5 1 7 6 5 6 8 6 8 9 5 4 5 5 6 6 7 5 3 3 1 3 2 4 2 7 8 5 1 2 1 2 1 2 2 8
26 26 25 30 1 4 4 3 6 5 5 7 5 8 5 6 3 6 7 7 1 9 7 5 5 3 3 4 6 2 4 3 3 4 5 2 4 6 4 3 4 5 5 6 6
26 25 22 12 7 3 1 7 5 4 2 4 4 1 3 10 5 5 5 4 7 6 5 7 2 2 3 4 6 5 4 4 3 5 4 3 5 8 8 8 13 8 7 7 6
28 25 21 1 2 9 8 7 4 7 7 3 5 6 7 3 2 4 4 4 3 4 2 6 3 3 6 4 1 7 6 9 6 4 3 2 5 6 9 25 11 7 8 8 7
31 28 13 3 6 4 6 4 6 4 4 4 5 5 3 5 3 4 7 5 6 5 2 4 2 4 3 5 3 5 7 5 6 6 6 0 2 10 8 7 14 19 13 9 6
34 29 5 6 3 5 3 6 4 5 6 3 4 4 8 5 5 4 6 5 3 5 4 6 5 4 2 6 7 2 8 7 4 3 6 3 5 6 6 8 10 14 13 9 8
28 3 2 5 9 3 6 3 9 7 3 4 3 4 4 3 5 4 7 6 9 8 8 6 5 3 1 3 6 4 3 4 9 3 3 4 7 6 6 5 12 15 9 10 8
5 5 5 1 7 4 6 6 5 4 4 2 6 4 9 7 6 6 7 5 6 10 5 5 2 1 4 4 7 5 7 4 4 2 3 6 5 7 2 5 7 15 11 8 7
3 4 4 3 0 6 5 8 6 7 3 3 2 3 4 7 9 7 8 5 5 5 6 6 5 5 2 2 8 2 2 8 7 4 6 2 7 7 6 9 10 9 10 11 9
4 2 3 3 5 1 5 7 4 3 2 4 2 4 6 6 5 5 8 6 3 8 10 6 6 4 7 3 2 2 6 6 7 5 0 4 9 3 6 9 10 8 7 7 9
3 4 5 4 3 2 4 3 3 3 4 2 3 4 2 6 4 4 5 2 5 6 11 9 0 4 8 7 2 3 3 5 6 4 7 7 9 3 4 6 7 9 8 8 8
2 4 5 5 1 3 2 3 3 3 5 3 4 3 2 3 5 6 2 3 4 3 8 10 4 8 11 9 6 5 4 5 5 5 6 7 5 4 2 6 6 9 10 9 10
2 2 3 3 3 3 1 3 1 4 3 2 2 2 5 4 2 2 1 1 3 4 4 5 5 3 2 3 4 6 7 7 5 5 6 3 6 7 6 9 9 10 8 11 9
2 3 5 2 3 2 3 1 2 5 2 5 2 1 4 7 7 9 5 2 3 4 4 4 2 2 2 2 3 4 5 7 4 4 3 2 6 8 5 5 8 12 12 11 9
3 2 2 3 3 2 1 2 1 3 4 3 1 4 6 4 4 3 2 3 2 5 3 4 7 4 3 2 2 4 8 7 4 4 6 5 11 4 5 9 14 12 11 10 8
Wind_Direction
351 349 349 346 342 338 336 333 329 322 312 304 301 301 309 319 308 241 241 215 187 154 102 122 57 31 57 35 79 106 49 352 315 191 166 212 123 114 123 121 52 85 124 127 139
349 347 347 343 340 336 333 330 328 321 310 303 300 296 304 329 314 265 243 161 117 146 107 103 79 83 31 26 13 78 91 243 214 162 261 203 144 144 98 129 52 79 101 125 135
348 346 344 341 337 335 331 329 327 320 309 301 295 287 297 318 326 247 214 164 166 175 96 142 122 81 41 34 97 88 193 243 265 225 192 152 108 150 131 223 185 156 141 144 145
347 344 341 338 335 332 330 329 328 322 312 298 282 261 270 298 192 189 262 146 149 157 108 108 81 62 60 9 231 353 248 249 293 311 106 160 144 139 185 253 134 156 150 147 155
346 342 339 335 333 330 328 328 326 321 315 300 223 188 251 117 253 28 115 116 110 119 132 140 105 120 334 290 347 175 279 318 319 331 129 132 156 159 348 104 122 136 149 154 161
343 339 337 334 331 329 326 327 323 319 315 178 163 156 237 273 74 126 116 110 119 114 147 152 174 186 112 246 197 229 281 295 295 121 120 122 114 74 113 127 132 148 159 164 168
341 336 334 333 331 330 326 326 318 311 295 161 163 250 6 240 62 122 105 121 148 150 143 226 145 89 155 281 230 345 351 332 182 157 89 80 45 311 132 129 141 152 156 167 178
339 335 332 331 330 329 326 324 307 278 178 157 163 272 245 357 118 119 134 119 117 163 51 267 195 211 182 261 14 44 50 46 181 150 64 111 209 326 147 144 153 157 167 178 192
337 334 331 330 329 330 327 326 53 149 129 147 121 56 277 349 183 197 166 153 137 144 237 263 123 119 21 70 14 10 1 9 322 228 128 95 193 168 137 143 164 167 169 186 190
335 333 331 330 328 331 326 298 119 109 158 210 257 349 267 239 180 165 182 166 117 120 68 79 48 50 35 72 208 236 312 260 245 235 64 116 140 150 153 150 187 180 182 178 188
335 333 330 328 326 328 325 99 13 15 201 202 186 247 311 296 123 183 158 119 64 56 132 12 73 222 226 197 172 193 221 226 239 197 97 171 147 152 155 152 181 199 193 201 203
333 332 330 327 325 325 175 148 132 184 310 230 229 268 252 247 160 244 138 123 120 164 114 31 236 228 181 211 228 207 168 260 285 18 100 103 58 71 112 191 205 198 198 203 157
332 332 331 326 322 319 262 232 59 131 121 291 193 193 204 142 201 213 139 149 149 145 172 166 226 112 170 186 148 127 162 151 137 103 53 98 7 140 167 71 167 229 274 216 187
330 331 334 329 350 325 260 334 324 194 50 269 231 257 144 151 228 184 172 142 195 190 160 227 268 228 150 188 135 180 186 148 114 94 167 67 239 252 202 217 226 233 235 200 166
328 329 330 327 299 265 318 325 304 63 350 207 187 84 161 155 161 214 185 73 170 184 114 252 280 167 137 208 153 206 67 40 53 77 99 344 87 263 153 214 210 215 231 221 184
324 326 329 107 235 247 323 320 63 46 253 217 142 157 125 163 169 113 129 77 148 155 356 243 262 198 193 89 120 143 75 41 49 66 32 245 131 264 195 214 180 177 213 199 169
322 317 307 228 230 336 313 52 49 163 304 198 173 151 132 158 205 134 145 177 154 106 257 332 273 305 137 100 80 87 59 1 10 13 220 99 43 241 265 281 188 177 189 189 169
323 315 227 211 270 333 39 59 189 234 245 323 99 83 168 152 231 164 122 172 205 100 112 155 311 179 187 171 168 87 137 147 199 216 265 224 240 270 256 254 173 175 178 167 160
323 320 254 256 213 341 84 113 208 212 288 357 31 119 207 188 160 142 179 199 190 162 166 142 268 281 192 129 118 181 87 153 103 20 37 280 297 310 13 62 136 158 157 169 165
319 333 272 30 153 97 85 229 238 224 324 18 205 155 178 186 152 151 171 216 202 181 146 199 133 114 149 110 46 129 150 76 16 151 271 302 283 249 200 172 171 174 165 158 158
2 5 301 114 108 57 163 225 264 250 260 201 270 172 190 164 166 171 204 269 185 157 128 140 113 281 89 175 170 86 75 54 109 122 161 253 273 224 224 196 185 184 175 171 161
341 7 319 85 69 8 163 196 228 279 306 280 229 221 175 160 139 169 194 225 133 154 162 193 138 182 200 289 253 124 150 134 125 222 185 156 266 326 262 183 171 184 169 153 155
345 270 310 92 146 246 270 258 238 251 242 269 266 201 185 159 138 188 200 94 157 156 166 182 263 75 358 357 354 111 115 99 107 89 190 143 260 6 66 151 164 151 163 155 140
1 352 322 46 34 148 160 233 253 243 252 245 261 115 106 114 27 167 155 25 1 88 70 90 116 164 195 196 147 142 137 137 122 122 175 219 273 306 172 202 178 171 169 157 161
36 287 172 312 355 12 36 351 20 337 300 309 241 218 176 124 63 148 139 340 71 5 58 109 127 142 64 124 114 154 166 170 174 169 160 238 201 268 244 214 207 180 151 163 180
37 14 348 276 292 283 349 68 35 329 278 298 228 266 152 156 177 195 149 190 190 32 74 356 145 112 68 1 164 170 174 191 188 153 282 178 265 227 276 140 166 189 179 180 185
323 323 112 306 338 108 274 301 131 358 249 266 193 102 83 146 154 117 122 113 121 151 113 78 129 98 204 1 54 343 205 194 182 167 151 198 235 174 227 216 197 188 183 180 185